Weather History for Fort Myers, FL

Change the Weather History Date:

Tuesday, February 5, 2013

  Actual Average Record
Temperature  
Mean Temperature 65 °F 66 °F  
Max Temperature 79 °F 76 °F 86 °F (1982)
Min Temperature 50 °F 55 °F 29 °F (1996)
Degree Days  
Heating Degree Days 0 3  
Month to date heating degree days 19 15  
Since 1 July heating degree days 91 216  
Cooling Degree Days 0 3  
Month to date cooling degree days 0 15  
Year to date cooling degree days 176 98  
Growing Degree Days 14 (Base 50)    
Moisture  
Dew Point 50 °F    
Average Humidity 59    
Maximum Humidity 73    
Minimum Humidity 39    
Precipitation  
Precipitation 0.00 in 0.06 in 2.00 in (1982)
Month to date precipitation 0.00 0.35  
Year to date precipitation 0.62 2.29  
Sea Level Pressure  
Sea Level Pressure 30.05 in    
Wind  
Wind Speed 3 mph (SSE)    
Max Wind Speed 10 mph    
Max Gust Speed 14 mph    
Visibility 10 miles    
Events      
T = Trace of Precipitation, MM = Missing Value Source: NWS Daily Summary

Daily Weather History Graph

Daily Weather History Graph

Search for Another Location

Airport:

Trip Planner

Search our weather history database for the weather conditions in past years. The results will help you decide how hot, cold, wet, or windy it might be!

Date:

Astronomy

Feb. 05, 2013 Rise Set
Actual Time 7:10 AM EST 6:13 PM EST
Civil Twilight 6:46 AM EST 6:37 PM EST
Nautical Twilight 6:18 AM EST 7:04 PM EST
Astronomical Twilight 5:51 AM EST 7:32 PM EST
Moon 2:40 AM EST (2/5) 1:39 PM EST (2/5)
Length of Visible Light 11h 51m
Length of Day
11h 03m
Waning Crescent, 27% of the Moon is Illuminated
Feb 5
Waning Crescent
Feb 10
New
Feb 17
First Quarter
Feb 25
Full
Mar 4
Last Quarter

Hourly Weather History & Observations

Time (EST) Temp. Dew Point Humidity Pressure Visibility Wind Dir Wind Speed Gust Speed Precip Events Conditions
12:53 AM 55.0 °F 45.0 °F 69% 30.09 in 10.0 mi ENE 3.5 mph - N/A   Clear
1:53 AM 53.1 °F 45.0 °F 74% 30.08 in 10.0 mi Calm Calm - N/A   Mostly Cloudy
2:53 AM 53.1 °F 44.1 °F 71% 30.06 in 10.0 mi Calm Calm - N/A   Clear
3:53 AM 52.0 °F 43.0 °F 71% 30.05 in 10.0 mi ESE 3.5 mph - N/A   Clear
4:53 AM 51.1 °F 42.1 °F 71% 30.04 in 10.0 mi Calm Calm - N/A   Clear
5:53 AM 51.1 °F 42.1 °F 71% 30.04 in 10.0 mi SE 4.6 mph - N/A   Clear
6:53 AM 51.1 °F 42.1 °F 71% 30.06 in 10.0 mi Calm Calm - N/A   Clear
7:53 AM 54.0 °F 42.1 °F 64% 30.06 in 10.0 mi ESE 3.5 mph - N/A   Clear
8:53 AM 62.1 °F 43.0 °F 50% 30.07 in 10.0 mi SE 5.8 mph - N/A   Unknown
9:53 AM 69.1 °F 48.0 °F 47% 30.10 in 10.0 mi SSE 5.8 mph - N/A   Clear
10:53 AM 73.0 °F 50.0 °F 44% 30.09 in 10.0 mi South 5.8 mph - N/A   Clear
11:53 AM 75.0 °F 51.1 °F 43% 30.08 in 10.0 mi Variable 3.5 mph - N/A   Clear
12:53 PM 77.0 °F 51.1 °F 40% 30.06 in 10.0 mi Calm Calm - N/A   Clear
1:53 PM 78.1 °F 52.0 °F 40% 30.04 in 10.0 mi NW 6.9 mph - N/A   Clear
2:53 PM 78.1 °F 52.0 °F 40% 30.02 in 10.0 mi West 8.1 mph - N/A   Clear
3:53 PM 77.0 °F 53.1 °F 43% 30.01 in 10.0 mi WNW 8.1 mph - N/A   Clear
4:53 PM 75.9 °F 54.0 °F 46% 30.01 in 10.0 mi SSW 3.5 mph - N/A   Clear
5:53 PM 73.0 °F 54.0 °F 51% 30.02 in 10.0 mi West 6.9 mph - N/A   Clear
6:53 PM 70.0 °F 54.0 °F 57% 30.03 in 10.0 mi Calm Calm - N/A   Clear
7:53 PM 69.1 °F 55.9 °F 63% 30.03 in 10.0 mi Calm Calm - N/A   Overcast
8:53 PM 69.1 °F 57.9 °F 68% 30.05 in 10.0 mi WNW 3.5 mph - N/A   Overcast
9:53 PM 68.0 °F 59.0 °F 73% 30.06 in 10.0 mi Calm Calm - N/A   Mostly Cloudy
10:53 PM 66.0 °F 57.9 °F 75% 30.07 in 10.0 mi Calm Calm - N/A   Mostly Cloudy
11:53 PM 66.0 °F 57.0 °F 73% 30.07 in 10.0 mi NE 3.5 mph - N/A   Overcast